Location: Silverdale
(47.6506°N, 122.6941°W)
Time: 16:21:35
(UTC+00:00)

Transit 2A - Pass Details

Date: 08 October 2022
Orbit: 598 x 959 km, 66.7° (Epoch: 30 November)

Event Time Altitude Azimuth Distance (km) Brightness Sun altitude
Rises 13:05:04 0° 331° (NNW) 2,925 8.8 -13.4°
Reaches altitude 10° 13:07:33 10° 343° (NNW) 2,054 8.1 -13.0°
Maximum altitude 13:11:34 28° 43° (NE) 1,269 7.7 -12.3°
Drops below altitude 10° 13:15:52 10° 103° (ESE) 2,217 9.7 -11.6°
Sets 13:18:39 0° 114° (ESE) 3,203 10.4 -11.1°
